This is the latest recevied weather packets stored in our database for station/object F1ZVN-13. If no packets are shown the sender has not sent any weather packets the latest 10 day(s).
| Time | Temp. | Humidity | Pressure | Rain* | Wind** | Luminosity | Snow |
|---|---|---|---|---|---|---|---|
| 1778234246 | 5.56° C | 54% | 1004.7 hPa | 0 mm | 0 m/s | - | - |
| 1778234126 | 5.56° C | 54% | 1004.6 hPa | 0 mm | 0 m/s | - | - |
| 1778234003 | 5.56° C | 54% | 1004.6 hPa | 0 mm | 0 m/s | - | - |
| 1778233885 | 5.56° C | 54% | 1004.7 hPa | 0 mm | 0 m/s | - | - |
| 1778233768 | 5.56° C | 51% | 1004.7 hPa | 0 mm | 0 m/s | - | - |
| 1778233523 | 5° C | 50% | 1004.7 hPa | 0 mm | 0 m/s | - | - |
| 1778233398 | 5° C | 50% | 1004.7 hPa | 0 mm | 0 m/s | - | - |
| 1778233275 | 5° C | 50% | 1004.5 hPa | 0 mm | 0 m/s | - | - |
| 1778233156 | 5° C | 51% | 1004.5 hPa | 0 mm | 0 m/s | - | - |
| 1778233038 | 5° C | 54% | 1004.3 hPa | 0 mm | 0 m/s | - | - |
| 1778232951 | 5° C | 53% | 1004.3 hPa | 0 mm | 0 m/s | - | - |
| 1778232913 | 5° C | 53% | 1004.3 hPa | 0 mm | 0 m/s | - | - |
| 1778232790 | 5° C | 55% | 1004.5 hPa | 0 mm | 0 m/s | - | - |
| 1778232670 | 5° C | 52% | 1004.3 hPa | 0 mm | 0 m/s | - | - |
| 1778232547 | 5° C | 54% | 1004.3 hPa | 0 mm | 0 m/s | - | - |
| 1778232434 | 5° C | 53% | 1004.3 hPa | 0 mm | 0 m/s | - | - |
| 1778232305 | 5° C | 55% | 1004.2 hPa | 0 mm | 0 m/s | - | - |
| 1778232185 | 5° C | 56% | 1004.2 hPa | 0 mm | 0 m/s | - | - |
| 1778232063 | 4.44° C | 58% | 1004.2 hPa | 0 mm | 0 m/s | - | - |
| 1778231947 | 4.44° C | 57% | 1004.2 hPa | 0 mm | 0 m/s | - | - |
| 1778231700 | 4.44° C | 57% | 1004.2 hPa | 0 mm | 0 m/s | - | - |
| 1778231577 | 4.44° C | 60% | 1004.2 hPa | 0 mm | 0 m/s | - | - |
| 1778231335 | 4.44° C | 61% | 1004.2 hPa | 0 mm | 0 m/s | - | - |
| 1778231215 | 4.44° C | 60% | 1004.2 hPa | 0 mm | 0 m/s | - | - |
| 1778231092 | 4.44° C | 60% | 1004.2 hPa | 0 mm | 0 m/s | - | - |
* Rain latest hour (hover to see other rain measurements)
** Current wind speed in m/s (hover to see current wind gust speed)